Back to catalog

COSMOS 2251 DEB

AliveLEO
NORAD 34021·DEBRIS·🇷🇺 Russia

Launched Jun 16, 1993 from Plesetsk Cosmodrome

Loading…

Next Passes (next 24 hours)

TLE

FreshSource: Space-Track

Epoch: Sep 14, 2026, 04:07 UTC

1 34021U 93036HG  26257.17155693  .00000681  00000-0  17993-3 0  9997
2 34021  74.0374 332.3034 0019266  43.1290 342.2717 14.50676091926235

Track COSMOS 2251 DEB in real time with AllMySat

Download on the App Store